KHALIFASAT

Satellite information

Favourite Embed

Satellite Type and Status

PAYLOADIN ORBIT

Key statistics

Satellite KHALIFASAT at a glance.

Uptime

2443

Days in orbit

Revolutions

≈ 15.0

Per day

Orbit

SSO

Sun Synchronous Orbit

Inclination

98.1

Latest

Satellite identification and parameters

Extended collection of information and parameters for KHALIFASAT.

Object identification

Identified? True

Debris? False

Object name: KHALIFASAT

International designator: 2018-084F

Object number (NORAD): 43676

Object ID (CCSDS): 43676

Country: UNITED ARAB EMIRATES (UAE)

Current information (Y/N): Y

RCS size: LARGE

Orbital parameters

Period: 96.044 minutes

Inclination: 98.0863 deg

SMA: 6947.158 km

Apoapsis: 578.727 km

Periapsis: 559.319 km

RAAN: 351.6148 deg

Eccentricy: 0.0013968

Argument of periapsis: 156.2938 deg

Mean anomaly: 203.893 deg

Mean motion: 14.99311937 rev/day

Mean motion (dot): 0.00002594 rev/day2

B* drag term: 0.00021728 1/REarth

Two-line elements (TLE)

Creation date: July 6, 2025, 10:36 p.m.

Reference frame: TEME

Reference center: EARTH

Epoch: July 6, 2025, 8:58 p.m. UTC

TLE line 0: 0 KHALIFASAT

TLE line 1: 1 43676U 18084F 25187.87405460 .00002594 00000-0 21728-3 0 9997

TLE line 2: 2 43676 98.0863 351.6148 0013968 156.2938 203.8930 14.99311937363993

Live tracking on map

Real-time ground track for satellite KHALIFASAT.

In-orbit conjunctions

There are no conjunctions computed for KHALIFASAT, at the moment. Check back to stay up to date, as we update our databases every day.

Go to all conjunctions

Associated space launch

KhalifaSat is an Earth observation satellite for UAE. KhalifaSat will provide high-resolution imagery of Earth to be used for various purposes, including urban planning, change monitoring, area classification, monitoring environmental change and aiding relief efforts for natural disasters. GOSAT 2 (Greenhouse gases Observing SATellite 2) is a Japanese satellite dedicated to greenhouse gas measurement from space. It's a follow on to the GOSAT mission and includes such improvements as an ability to gather more precise data and monitor carbon monoxide concentrations.

KHALIFASAT was lifted into orbit during the mission ‘H-IIA 202 | KhalifaSat & GOSAT-2’, on board a H-IIA space rocket.

The launch took place on Oct. 29, 2018, 4:08 a.m. from Yoshinobu Launch Complex LP-1.

For more information about the launch, click the button.

Launch to space H-IIA 202 | KhalifaSat & GOSAT-2
H-IIA 202 | KhalifaSat & GOSAT-2

Agency: N/A

Status: Launch Successful

Launch date: Oct. 29, 2018, 4:08 a.m. UTC

Rocket: H-IIA

Launch pad: Yoshinobu Launch Complex LP-1

Location: Tanegashima Space Center, Japan

...

Latest news about this satellite

News about space launch
Japan Launches UAE's KhalifaSat and Climate-Monitoring Satellite Into Orbit


Newsletter sign-up

Weekly statistics, charts and insights to help you stay on top of the space industry.